TimeGST,TemperatureF,Dew PointF,Humidity,Sea Level PressureIn,VisibilityMPH,Wind Direction,Wind SpeedMPH,Gust SpeedMPH,PrecipitationIn,Events,Conditions,WindDirDegrees,DateUTC
12:00 AM,82.4,46.4,28,29.83,-9999.0,ENE,4.6,-,N/A,,Clear,60,2013-04-11 20:00:00
1:00 AM,82,47,19,29.83,6,East,5.8,,,,,100,2013-04-11 21:00:00
1:00 AM,82.4,46.4,28,29.80,-9999.0,East,5.8,-,N/A,,Clear,100,2013-04-11 21:00:00
2:00 AM,80.6,46.4,30,29.80,-9999.0,East,4.6,-,N/A,,Clear,80,2013-04-11 22:00:00
3:00 AM,80.6,46.4,30,29.80,-9999.0,ESE,3.5,-,N/A,,Clear,110,2013-04-11 23:00:00
4:00 AM,80,46,20,29.80,6,East,3.5,,,,,100,2013-04-12 00:00:00
4:00 AM,80.6,46.4,30,29.80,-9999.0,East,3.5,-,N/A,,Clear,100,2013-04-12 00:00:00
5:00 AM,78.8,46.4,32,29.80,-9999.0,East,4.6,-,N/A,,Clear,100,2013-04-12 01:00:00
6:00 AM,78.8,46.4,32,29.83,-9999.0,ESE,5.8,-,N/A,,Clear,110,2013-04-12 02:00:00
7:00 AM,79,47,22,29.86,6,,2.3,,,,,,2013-04-12 03:00:00
7:00 AM,78.8,48.2,34,29.86,-9999.0,Variable,2.3,-,N/A,,Clear,0,2013-04-12 03:00:00
8:00 AM,84.2,48.2,29,29.86,5.0,Variable,4.6,-,N/A,,Unknown,0,2013-04-12 04:00:00
9:00 AM,86.0,48.2,27,29.89,4.3,SSE,4.6,-,N/A,,Unknown,150,2013-04-12 05:00:00
10:00 AM,89,49,16,29.91,4,SW,5.8,,,,Widespread Dust,230,2013-04-12 06:00:00
10:00 AM,89.6,50.0,26,29.89,4.3,Variable,5.8,-,N/A,,Unknown,0,2013-04-12 06:00:00
11:00 AM,95.0,44.6,18,29.89,3.1,South,9.2,-,N/A,,Unknown,190,2013-04-12 07:00:00
12:00 PM,96.8,53.6,23,29.89,3.1,WSW,11.5,-,N/A,,Unknown,250,2013-04-12 08:00:00
1:00 PM,92,58,22,29.88,4,NW,11.5,,,,Widespread Dust,320,2013-04-12 09:00:00
1:00 PM,91.4,57.2,31,29.86,4.3,NW,11.5,-,N/A,,Unknown,320,2013-04-12 09:00:00
2:00 PM,95.0,50.0,22,29.83,4.3,NW,9.2,-,N/A,,Unknown,310,2013-04-12 10:00:00
3:00 PM,91.4,48.2,23,29.83,4.3,WNW,16.1,-,N/A,,Unknown,290,2013-04-12 11:00:00
4:00 PM,90,47,14,29.85,5,WNW,17.3,,,,Widespread Dust,300,2013-04-12 12:00:00
4:00 PM,89.6,46.4,22,29.83,5.0,WNW,17.3,-,N/A,,Unknown,300,2013-04-12 12:00:00
5:00 PM,89.6,55.4,31,29.83,5.0,NW,15.0,-,N/A,,Unknown,310,2013-04-12 13:00:00
6:00 PM,86.0,59.0,40,29.83,5.0,NNW,9.2,-,N/A,,Unknown,330,2013-04-12 14:00:00
7:00 PM,85,60,32,29.86,6,NNW,6.9,,,,,340,2013-04-12 15:00:00
7:00 PM,84.2,59.0,42,29.83,-9999.0,NNW,6.9,-,N/A,,Clear,340,2013-04-12 15:00:00
8:00 PM,86.0,57.2,37,29.86,-9999.0,North,4.6,-,N/A,,Clear,10,2013-04-12 16:00:00
9:00 PM,86.0,51.8,31,29.89,-9999.0,East,5.8,-,N/A,,Clear,100,2013-04-12 17:00:00
10:00 PM,86,52,21,29.90,6,ENE,3.5,,,,,60,2013-04-12 18:00:00
10:00 PM,86.0,51.8,31,29.89,-9999.0,ENE,3.5,-,N/A,,Clear,60,2013-04-12 18:00:00
11:00 PM,86.0,51.8,31,29.89,-9999.0,ENE,3.5,-,N/A,,Clear,70,2013-04-12 19:00:00